Weather History for Dillingham, AK

Change the Weather History Date:

Tuesday, March 12, 2013

  Actual Average Record
Temperature  
Mean Temperature 22 °F -  
Max Temperature 30 °F 29 °F 44 °F (1968)
Min Temperature 14 °F 15 °F -21 °F (1966)
Degree Days  
Heating Degree Days 43    
Moisture  
Dew Point 10 °F    
Average Humidity 59    
Maximum Humidity 86    
Minimum Humidity 26    
Precipitation  
Precipitation 0.00 in - - ()
Sea Level Pressure  
Sea Level Pressure 30.32 in    
Wind  
Wind Speed 9 mph (NW)    
Max Wind Speed 22 mph    
Max Gust Speed 31 mph    
Visibility 9 miles    
Events      
Averages and records for this station are not official NWS values.
T = Trace of Precipitation, MM = Missing Value Source: NWS Daily Summary

Daily Weather History Graph

Daily Weather History Graph

Search for Another Location

Airport:

Trip Planner

Search our weather history database for the weather conditions in past years. The results will help you decide how hot, cold, wet, or windy it might be!

Date:

Astronomy

Mar. 12, 2013 Rise Set
Actual Time 8:57 AM AKDT 8:30 PM AKDT
Civil Twilight 8:17 AM AKDT 9:11 PM AKDT
Nautical Twilight 7:30 AM AKDT 9:58 PM AKDT
Astronomical Twilight 6:40 AM AKDT 10:48 PM AKDT
Moon 8:47 AM AKDT (3/12) 10:29 PM AKDT (3/12)
Length of Visible Light 12h 53m
Length of Day
11h 33m
New Moon, 1% of the Moon is Illuminated
Mar 12
New Moon
Mar 19
First Quarter
Mar 27
Full
Apr 2
Last Quarter
Apr 10
New

Hourly Weather History & Observations

Time (AKDT) Temp. Windchill Dew Point Humidity Pressure Visibility Wind Dir Wind Speed Gust Speed Precip Events Conditions
12:16 AM 21.2 °F 13.6 °F 12.2 °F 68% 30.47 in 10.0 mi WNW 5.8 mph - N/A   Unknown
12:36 AM 19.4 °F 14.3 °F 12.2 °F 74% 30.47 in 10.0 mi West 3.5 mph - N/A   Unknown
12:56 AM 17.6 °F 12.3 °F 12.2 °F 79% 30.47 in 10.0 mi WNW 3.5 mph - N/A   Unknown
1:16 AM 17.6 °F - 10.4 °F 73% 30.47 in 10.0 mi Calm Calm - N/A   Unknown
1:36 AM 15.8 °F 8.6 °F 10.4 °F 79% 30.46 in 10.0 mi West 4.6 mph - N/A   Unknown
1:56 AM 15.8 °F 10.2 °F 10.4 °F 79% 30.45 in 10.0 mi WNW 3.5 mph - N/A   Unknown
2:16 AM 14.0 °F 6.5 °F 10.4 °F 86% 30.45 in 10.0 mi West 4.6 mph - N/A   Unknown
2:36 AM 15.8 °F 8.6 °F 10.4 °F 79% 30.44 in 10.0 mi WNW 4.6 mph - N/A   Unknown
2:56 AM 19.4 °F 9.5 °F 12.2 °F 74% 30.43 in 10.0 mi WNW 8.1 mph - N/A   Unknown
3:16 AM 21.2 °F 10.9 °F 12.2 °F 68% 30.43 in 10.0 mi WNW 9.2 mph - N/A   Unknown
3:36 AM 21.2 °F 11.7 °F 12.2 °F 68% 30.42 in 10.0 mi WNW 8.1 mph - N/A   Unknown
3:56 AM 19.4 °F 11.5 °F 10.4 °F 68% 30.43 in 10.0 mi WNW 5.8 mph - N/A   Unknown
4:16 AM 17.6 °F 10.7 °F 10.4 °F 73% 30.43 in 10.0 mi WNW 4.6 mph - N/A   Unknown
4:36 AM 15.8 °F 6.1 °F 10.4 °F 79% 30.41 in 10.0 mi WNW 6.9 mph - N/A   Unknown
4:56 AM 21.2 °F 14.9 °F 10.4 °F 63% 30.41 in 10.0 mi NW 4.6 mph - N/A   Unknown
5:16 AM 21.2 °F 12.6 °F 10.4 °F 63% 30.40 in 10.0 mi NW 6.9 mph - N/A   Unknown
5:36 AM 21.2 °F 10.9 °F 12.2 °F 68% 30.40 in 10.0 mi North 9.2 mph - N/A   Unknown
5:56 AM 21.2 °F 10.1 °F 12.2 °F 68% 30.39 in 10.0 mi NNW 10.4 mph - N/A   Unknown
6:16 AM 24.8 °F 13.4 °F 12.2 °F 59% 30.38 in 10.0 mi NNW 12.7 mph - N/A   Unknown
6:36 AM 24.8 °F 12.4 °F 12.2 °F 59% 30.37 in 10.0 mi NNW 15.0 mph - N/A   Unknown
6:56 AM 24.8 °F 11.9 °F 12.2 °F 59% 30.36 in 10.0 mi NW 16.1 mph 21.9 mph N/A   Unknown
7:16 AM 24.8 °F 11.9 °F 12.2 °F 59% 30.36 in 10.0 mi NNW 16.1 mph - N/A   Unknown
7:36 AM 24.8 °F 11.5 °F 12.2 °F 59% 30.35 in 10.0 mi NW 17.3 mph - N/A   Unknown
7:45 AM 24.8 °F 11.5 °F 12.2 °F 59% 30.36 in 10.0 mi NW 17.3 mph 25.3 mph N/A   Clear
8:45 AM 21.2 °F 7.3 °F 10.4 °F 63% 30.35 in 10.0 mi NW 16.1 mph 21.9 mph N/A   Clear
9:45 AM 21.2 °F 6.8 °F 10.4 °F 63% 30.33 in 30.0 mi NW 17.3 mph 25.3 mph N/A   Clear
10:50 AM 23.0 °F 11.1 °F 12.2 °F 63% 30.33 in 30.0 mi WNW 12.7 mph 19.6 mph N/A   Clear
11:47 AM 26.6 °F 14.3 °F 12.2 °F 55% 30.30 in 30.0 mi WNW 16.1 mph 24.2 mph N/A   Clear
12:48 PM 28.4 °F 15.8 °F 12.2 °F 51% 30.28 in 30.0 mi WNW 18.4 mph 29.9 mph N/A   Clear
1:48 PM 30.2 °F 19.3 °F 10.4 °F 44% 30.26 in 30.0 mi NW 15.0 mph 20.7 mph N/A   Clear
2:50 PM 30.2 °F 17.1 °F 8.6 °F 40% 30.22 in 30.0 mi NW 21.9 mph 31.1 mph N/A   Clear
3:46 PM 30.2 °F 19.3 °F 8.6 °F 40% 30.21 in 30.0 mi NW 15.0 mph 27.6 mph N/A   Clear
4:53 PM 28.4 °F 16.6 °F 10.4 °F 47% 30.20 in 30.0 mi NNW 16.1 mph 24.2 mph N/A   Clear
5:50 PM 28.4 °F 16.6 °F 8.6 °F 43% 30.18 in 30.0 mi NW 16.1 mph 26.5 mph N/A   Clear
6:47 PM 28.4 °F 16.6 °F 8.6 °F 43% 30.16 in 30.0 mi NW 16.1 mph 25.3 mph N/A   Clear
7:47 PM 26.6 °F 14.7 °F 8.6 °F 47% 30.14 in 30.0 mi NW 15.0 mph 24.2 mph N/A   Clear
8:48 PM 26.6 °F 16.8 °F 6.8 °F 43% 30.14 in 30.0 mi NW 10.4 mph 16.1 mph N/A   Clear
9:56 PM 24.8 °F 12.4 °F 8.6 °F 50% 30.13 in 10.0 mi NNW 15.0 mph 19.6 mph N/A   Unknown
10:16 PM 24.8 °F 14.0 °F 8.6 °F 50% 30.13 in 10.0 mi NNW 11.5 mph 19.6 mph N/A   Unknown
10:36 PM 24.8 °F 14.0 °F 8.6 °F 50% 30.13 in 10.0 mi NNW 11.5 mph 20.7 mph N/A   Unknown
10:56 PM 24.8 °F 12.9 °F 6.8 °F 46% 30.12 in 10.0 mi NNW 13.8 mph - N/A   Unknown
11:16 PM 24.8 °F 13.4 °F 6.8 °F 46% 30.13 in 10.0 mi NNW 12.7 mph 20.7 mph N/A   Unknown
11:36 PM 24.8 °F 14.0 °F 6.8 °F 46% 30.13 in 10.0 mi NNW 11.5 mph - N/A   Unknown
11:56 PM 24.8 °F 13.4 °F 6.8 °F 46% 30.12 in 10.0 mi NNW 12.7 mph - N/A   Unknown